Location: Zapote
(9.9191°N, 84.0597°W)
Time: 09:53:30
(UTC-06:00)

Explorer 7 - All Passes

Search period start: 27 February 2021 00:00
Search period end: 09 March 2021 00:00
Orbit: 484 x 677 km, 50.3° (Epoch: 26 February)

Date Brightness Start Highest point End Pass type
(mag) Time Alt. Az. Time Alt. Az. Time Alt. Az.
27 Feb - 11:23:55 10° SSE 11:27:05 17° SE 11:30:12 10° E daylight
27 Feb - 13:03:00 10° WSW 13:07:29 38° NW 13:11:46 10° NNE daylight
27 Feb - 23:20:52 10° NW 23:24:33 70° SW 23:28:19 10° SSE night (unlit)
28 Feb - 11:27:12 10° S 11:31:34 33° SE 11:35:48 10° ENE daylight
28 Feb - 13:08:28 10° W 13:12:01 20° NW 13:15:29 10° N daylight
28 Feb - 21:46:58 10° NNE 21:48:42 13° NE 21:50:25 10° ENE night (unlit)
28 Feb - 23:25:45 10° WNW 23:29:02 29° SW 23:32:21 10° S night (unlit)
01 Mar - 11:31:12 10° SSW 11:36:02 65° SE 11:40:43 10° NE daylight
01 Mar - 13:15:22 10° WNW 13:16:38 11° NW 13:17:52 10° NNW daylight
01 Mar - 21:50:05 10° N 21:53:16 26° NE 21:56:27 10° ESE night (unlit)
01 Mar - 23:31:34 10° W 23:33:29 14° SW 23:35:26 10° SSW night (unlit)
02 Mar - 09:59:13 10° SE 10:00:08 10° SE 10:01:02 10° ESE daylight
02 Mar - 11:35:41 10° SW 11:40:30 64° NW 11:45:12 10° NNE daylight
02 Mar - 21:54:06 10° NNW 21:57:47 60° NE 22:01:29 10° SE night (unlit)
03 Mar - 10:00:58 10° S 10:04:36 21° SE 10:08:11 10° ENE daylight
03 Mar - 11:40:39 10° WSW 11:45:01 33° NW 11:49:16 10° NNE daylight
03 Mar - 21:58:36 10° NW 22:02:15 55° SW 22:05:55 10° SSE night (unlit)
04 Mar - 10:04:30 10° SSW 10:09:04 39° SE 10:13:33 10° ENE daylight
04 Mar - 11:46:17 10° W 11:49:34 18° NW 11:52:48 10° N daylight
04 Mar - 20:24:04 10° N 20:26:25 16° NE 20:28:43 10° E night (unlit)
04 Mar - 22:03:40 10° WNW 22:06:43 24° SW 22:09:45 10° S night (unlit)
05 Mar - 10:08:38 10° SSW 10:13:32 78° SE 10:18:20 10° NE daylight
05 Mar - 20:27:32 10° NNW 20:30:59 32° NE 20:34:21 10° ESE night (unlit)
05 Mar - 22:10:08 10° WSW 22:11:09 11° SW 22:12:11 10° SW night (unlit)
06 Mar - 08:35:30 10° SSE 08:37:39 13° SE 08:39:48 10° E daylight
06 Mar - 10:13:13 10° SW 10:18:00 53° NW 10:22:42 10° NNE daylight
06 Mar - 20:31:42 10° NW 20:35:29 77° NE 20:39:12 10° SE night (unlit)
07 Mar - 08:38:09 10° S 08:42:05 25° SE 08:46:02 10° ENE daylight
07 Mar - 10:18:20 10° WSW 10:22:31 28° NW 10:26:40 10° N daylight
07 Mar - 20:36:20 10° NW 20:39:56 43° SW 20:43:30 10° SSE night (unlit)
08 Mar - 08:41:51 10° SSW 08:46:32 47° SE 08:51:12 10° NE daylight
08 Mar - 10:24:12 10° W 10:27:06 16° NW 10:29:59 10° NNW daylight
08 Mar - 19:01:16 10° N 19:04:06 19° NE 19:06:52 10° E visible
08 Mar - 20:41:35 10° WNW 20:44:22 19° SW 20:47:07 10° S night (unlit)
